Weather in Porto Cesareo

Italy     40°16′01″N   17°53′50″E
temp.,
°C
wind,
m/s
gust,
m/s
humid.,
%
clouds,
%
prec.,
mm/h
press.,
hPa
HPBL,
m
8 december, wed
wed801:00+8nw813606 0.1 1010682
04:00+7wnw611645 0.0 1011405
07:00+6wnw410715 0.0 1013253
10:00+10wnw346022 0.0 1014368
13:00+12wsw224754 0.0 1012571
16:00+10sse476021 0.0 1012249
19:00+10se5116792 0.0 1012368
22:00+11se7137498 0.0 1011408
9 december, thu
thu901:00+13sse815888 0.0 1009522
04:00+14sse10168745 0.1 1007734
07:00+15s121878100 0.2 10051247
10:00+15s121675100 0.6 10051385
13:00+12wsw81076100 2.1 1005817
16:00+12sw71164100 0.1 1005655
19:00+11ssw6107132 0.3 1007302
22:00+11wsw697092 0.7 1007346
10 december, fri
fri1001:00+10w5876100 1.8 1007258
04:00+10sw347273 1.1 100885
07:00+10wsw6106646 1.3 1008267
10:00+12wsw9116046 0.1 10091441
13:00+12sw9116695 0.2 10091064
16:00+12sw610585 0.0 1007417
19:00+12ssw81262100 0.0 1007510
22:00+12s71173100 0.4 1005523
11 december, sat
sat1101:00+12s61175100 0.5 1001369
04:00+12ssw4891100 1.9 997435
07:00+12sw71076100 2.1 998495
10:00+12wsw91175100 0.3 9991077
13:00+12wsw8106898 0.6 998938
16:00+11sw7107198 0.9 999517
19:00+9wnw34792 0.9 1000103
22:00+8wnw23805 0.3 100284
12 december, sun
sun1201:00+9w5979100 0.4 1004338
04:00+8wnw368310 0.4 1006164
07:00+7wnw368970 0.4 1008162
10:00+10nnw247614 0.0 1010313
13:00+10nnw111463100 0.7 1012985
16:00+10nnw81360100 0.0 1015911
19:00+8nw81375100 0.1 1018785
22:00+9nw81361100 0.1 10201142